Weather History for Clarksville, TN

Change the Weather History Date:

Monday, January 7, 2013

  Actual Average Record
Temperature  
Mean Temperature 32 °F -  
Max Temperature 45 °F - 68 °F (2008)
Min Temperature 19 °F - -4 °F (1970)
Degree Days  
Heating Degree Days 33    
Month to date heating degree days 223  
Since 1 July heating degree days 1663  
Cooling Degree Days 0    
Month to date cooling degree days 0  
Moisture  
Dew Point 23 °F    
Average Humidity 73    
Maximum Humidity 96    
Minimum Humidity 49    
Precipitation  
Precipitation 0.00 in - 3.30 in (1998)
Month to date precipitation 0.02  
Sea Level Pressure  
Sea Level Pressure 30.38 in    
Wind  
Wind Speed 2 mph (East)    
Max Wind Speed 9 mph    
Max Gust Speed 10 mph    
Visibility 6 miles    
Events      
T = Trace of Precipitation, MM = Missing Value Source: NWS Daily Summary

Daily Weather History Graph

Daily Weather History Graph

Search for Another Location

Airport:

Trip Planner

Search our weather history database for the weather conditions in past years. The results will help you decide how hot, cold, wet, or windy it might be!

Date:

Astronomy

Jan. 07, 2013 Rise Set
Actual Time 7:02 AM CST 4:50 PM CST
Civil Twilight 6:33 AM CST 5:18 PM CST
Nautical Twilight 6:01 AM CST 5:50 PM CST
Astronomical Twilight 5:30 AM CST 6:21 PM CST
Moon 2:27 AM CST (1/7) 12:59 PM CST (1/7)
Length of Visible Light 10h 44m
Length of Day
9h 47m
Waning Crescent, 22% of the Moon is Illuminated
Jan 7
Waning Crescent
Jan 11
New
Jan 18
First Quarter
Jan 26
Full
Feb 3
Last Quarter

Hourly Weather History & Observations

Time (CST) Temp. Windchill Dew Point Humidity Pressure Visibility Wind Dir Wind Speed Gust Speed Precip Events Conditions
12:52 AM 24.1 °F - 19.9 °F 84% 30.41 in 6.0 mi Calm Calm - N/A   Clear
2:52 AM 21.0 °F - 19.0 °F 92% 30.44 in 4.0 mi Calm Calm - N/A   Clear
3:52 AM 21.0 °F - 18.0 °F 88% 30.43 in 4.0 mi Calm Calm - N/A   Clear
4:20 AM 19.4 °F - 17.6 °F 93% 30.40 in 2.5 mi Calm Calm - N/A   Clear
4:33 AM 19.4 °F - 17.6 °F 93% 30.41 in 3.0 mi Calm Calm - N/A   Clear
4:52 AM 19.9 °F 14.9 °F 17.1 °F 89% 30.42 in 4.0 mi North 3.5 mph - N/A   Clear
5:52 AM 21.0 °F - 18.0 °F 88% 30.44 in 3.0 mi Calm Calm - N/A   Clear
6:52 AM 19.9 °F 14.9 °F 18.0 °F 92% 30.45 in 3.0 mi East 3.5 mph - N/A   Clear
7:03 AM 19.4 °F 14.3 °F 17.6 °F 93% 30.43 in 2.5 mi ENE 3.5 mph - N/A   Clear
7:30 AM 21.2 °F - 19.4 °F 93% 30.44 in 3.0 mi Calm Calm - N/A   Clear
7:52 AM 23.0 °F - 19.9 °F 88% 30.46 in 3.0 mi Calm Calm - N/A   Clear
8:52 AM 28.0 °F 21.7 °F 23.0 °F 81% 30.47 in 4.0 mi East 5.8 mph - N/A   Haze
9:52 AM 33.1 °F 27.7 °F 25.0 °F 72% 30.48 in 6.0 mi ENE 5.8 mph - N/A   Haze
10:52 AM 36.0 °F 33.3 °F 26.1 °F 67% 30.45 in 7.0 mi ENE 3.5 mph - N/A   Clear
11:52 AM 37.9 °F - 26.1 °F 62% 30.41 in 9.0 mi Calm Calm - N/A   Clear
12:52 PM 39.9 °F - 26.1 °F 58% 30.38 in 10.0 mi Calm Calm - N/A   Clear
1:52 PM 43.0 °F 41.3 °F 27.0 °F 53% 30.35 in 10.0 mi ESE 3.5 mph - N/A   Clear
2:52 PM 44.1 °F - 27.0 °F 51% 30.35 in 10.0 mi Calm Calm - N/A   Clear
3:52 PM 43.0 °F 41.3 °F 27.0 °F 53% 30.33 in 10.0 mi ENE 3.5 mph - N/A   Clear
4:52 PM 37.0 °F 31.6 °F 26.1 °F 65% 30.31 in 9.0 mi East 6.9 mph - N/A   Clear
5:52 PM 35.1 °F 29.3 °F 27.0 °F 72% 30.30 in 10.0 mi ESE 6.9 mph - N/A   Clear
6:52 PM 34.0 °F 28.0 °F 27.0 °F 75% 30.28 in 10.0 mi SE 6.9 mph - N/A   Clear
7:52 PM 34.0 °F - 26.1 °F 73% 30.29 in 10.0 mi Calm Calm - N/A   Clear
8:52 PM 30.0 °F - 25.0 °F 82% 30.29 in 8.0 mi Calm Calm - N/A   Clear
9:52 PM 30.9 °F - 26.1 °F 82% 30.27 in 8.0 mi Calm Calm - N/A   Clear
10:52 PM 30.0 °F - 25.0 °F 82% 30.27 in 7.0 mi Calm Calm - N/A   Clear
11:52 PM 27.0 °F 23.0 °F 23.0 °F 85% 30.26 in 7.0 mi ESE 3.5 mph - N/A   Clear